Dewpoint
15 15 17 17 18 17 16 15 12 13 13 13 13 13 14 15 15 18 16 16 15 15 15 15 13 13 14 14 11 11 9 7 7 8 7 8 9 9 9 11 13 12 11 11 12 12 11 12 12
17 16 16 15 18 17 16 13 13 13 13 13 14 14 14 16 16 16 16 16 15 16 15 16 15 14 13 12 11 10 8 7 7 8 7 8 9 9 10 13 13 12 12 11 12 12 12 12 13
17 16 16 16 15 16 15 13 13 13 13 13 14 14 15 16 16 16 16 16 16 15 16 15 14 13 12 11 11 8 7 7 8 7 6 8 10 10 11 13 14 12 11 11 12 12 12 12 13
16 15 14 17 13 13 12 12 13 14 14 14 14 15 15 16 16 16 16 16 15 16 17 13 13 13 11 10 9 7 7 7 7 7 7 9 11 11 13 14 14 11 11 12 13 13 14 14 14
16 16 15 13 11 12 11 12 13 13 13 14 14 15 16 16 16 16 16 15 15 16 16 14 11 10 9 8 7 7 7 7 7 10 8 10 11 12 12 13 12 11 13 14 13 14 13 13 12
17 13 13 10 10 12 12 12 12 12 14 14 14 15 17 16 16 15 15 15 15 15 15 14 7 8 8 7 7 6 7 8 9 10 10 11 12 12 12 12 11 12 13 14 13 13 13 12 13
15 12 12 10 12 11 12 12 12 12 13 13 14 15 16 16 16 15 15 15 15 15 14 14 14 11 8 8 7 6 7 8 11 10 11 12 12 12 11 11 11 12 13 13 13 12 13 13 12
14 12 12 11 11 12 12 12 12 12 13 13 14 14 16 16 16 15 15 15 15 14 14 14 14 15 15 9 7 7 7 8 10 11 12 13 12 12 12 12 13 13 13 13 12 12 12 13 12
15 13 11 10 10 11 12 12 12 12 13 12 13 13 15 16 15 15 15 15 15 15 13 13 14 15 15 15 9 6 7 8 9 14 14 14 17 17 16 13 12 13 14 13 12 12 12 13 11
14 12 9 7 6 7 11 11 12 12 12 12 13 14 15 16 15 15 15 15 16 15 13 13 14 14 15 14 14 14 14 14 15 15 15 17 17 16 16 14 13 13 14 13 12 12 13 12 10
12 11 7 6 6 7 11 11 12 11 11 11 13 15 15 15 15 15 15 15 15 15 13 13 14 15 15 14 15 15 14 14 15 14 16 17 17 15 17 16 15 15 13 15 16 16 15 13 11
12 9 8 6 5 6 9 11 11 11 9 11 13 14 15 15 15 14 15 15 15 15 14 14 14 15 15 15 14 14 14 14 14 14 13 15 16 17 17 16 16 14 15 15 15 15 15 15 14
11 7 6 7 6 4 4 9 10 11 11 11 13 14 14 14 14 14 14 14 14 15 15 14 15 15 15 15 14 14 14 14 13 14 14 16 16 17 16 17 16 16 16 15 15 15 15 14 13
4 7 5 2 -0 0 0 7 9 10 11 12 13 13 13 14 14 14 14 14 14 14 14 14 15 15 15 15 15 15 15 15 14 14 14 13 15 14 16 16 16 16 16 16 15 15 16 13 13
3 -2 -4 -4 -3 -2 -0 5 8 8 12 13 13 13 13 13 14 14 14 14 14 14 14 14 15 15 13 13 12 15 15 15 14 13 11 13 13 14 15 16 16 16 17 13 15 15 15 14 12
-2 -3 -0 -1 -4 -3 -2 4 4 8 12 13 13 12 13 13 13 13 14 13 14 14 14 15 15 15 15 15 15 15 15 15 14 13 14 13 13 14 14 15 16 16 15 15 16 15 14 12 11
-3 1 2 1 -3 -1 -0 3 2 7 10 12 13 12 12 13 13 13 13 13 13 14 15 16 16 16 16 16 16 15 15 14 13 13 14 14 13 14 15 17 16 15 16 16 16 15 15 12 12
-0 -1 1 2 -0 -2 1 3 2 8 9 10 12 12 13 13 13 13 13 14 15 15 16 16 16 16 16 16 16 16 15 13 13 13 14 13 12 13 14 17 15 15 16 16 16 14 14 13 12
-3 -2 -0 -1 -2 -2 1 1 1 5 9 9 12 12 12 13 12 13 13 14 14 15 16 16 17 16 16 16 16 15 14 13 13 14 13 13 12 13 14 16 15 16 16 16 16 15 15 13 13
-4 -3 -2 -2 -3 -2 1 2 1 3 9 9 11 12 12 13 13 13 13 13 14 15 16 17 16 15 11 15 15 15 13 13 13 14 15 14 14 14 14 14 16 16 16 14 15 13 14 13 10
-5 -3 -3 -2 -3 -3 -2 0 0 0 7 9 10 11 12 12 13 13 13 13 13 14 16 16 15 15 12 15 16 16 14 14 14 14 16 16 13 14 14 13 14 16 15 16 15 15 14 12 11
-4 -7 -6 -5 -3 0 -2 3 2 1 5 7 8 10 11 12 13 13 13 13 13 14 15 16 16 16 15 11 15 14 14 13 14 14 15 16 14 14 14 13 14 14 16 17 15 16 15 14 11
-6 -10 -7 -6 -5 -2 -1 1 1 0 2 3 5 8 10 11 12 13 13 12 13 14 15 16 16 14 16 12 14 16 15 14 14 14 15 16 17 14 16 14 14 14 14 16 16 15 14 15 10
-7 -7 -6 -5 -6 -2 -2 -0 1 0 3 1 3 6 9 11 12 12 13 13 13 14 15 16 16 11 12 11 11 15 16 15 15 15 15 16 16 16 14 16 14 14 15 15 17 15 14 13 10
-5 -4 -2 -2 -3 -3 -4 -1 -0 -2 -2 0 1 2 8 10 11 12 13 14 13 13 15 15 16 13 11 11 12 12 13 14 16 16 16 16 15 15 15 13 13 15 13 14 15 15 14 11 10
-3 -4 -5 -1 -6 -7 -6 -2 -3 -4 -4 -3 -1 -1 5 9 11 11 12 13 14 14 14 15 15 11 11 11 12 12 12 15 16 16 16 16 15 15 16 16 12 13 12 13 14 16 14 11 3
-2 -2 -8 -8 -6 -6 -9 -7 -7 -5 -4 -3 -3 -2 -1 6 10 11 12 13 14 15 15 14 12 10 11 11 11 12 12 13 16 16 16 16 16 16 16 16 11 12 12 13 13 15 13 10 1
-5 -6 -4 -6 -1 -1 -8 -6 -6 -4 -3 -3 -3 -2 -1 5 9 10 11 12 13 14 15 15 10 7 8 11 11 11 12 12 12 13 14 14 16 15 16 16 14 14 12 11 13 15 14 12 8
-5 -4 -5 -6 -6 -4 -4 -7 -8 -5 -3 -3 -3 -2 -1 3 7 9 10 11 12 13 15 16 16 13 9 8 8 10 11 11 11 12 12 13 13 14 14 14 13 15 15 12 12 14 16 13 12
-6 -4 -4 -3 0 -4 -4 -7 -9 -9 -8 -4 -5 -3 -1 1 2 4 7 9 11 12 13 14 15 16 13 9 7 7 8 9 10 11 11 12 12 13 13 14 14 13 16 14 12 13 15 13 13
Wind_Speed
15 11 9 4 2 5 1 3 3 9 7 6 8 2 9 12 4 7 25 23 29 34 30 28 27 26 23 22 23 21 19 16 15 12 10 10 10 10 9 10 9 10 9 8 8 7 8 8 8
16 13 7 3 4 2 6 3 7 8 10 14 10 8 8 5 6 21 23 27 30 26 28 23 27 25 24 23 23 21 17 16 14 11 10 9 9 9 10 11 9 9 10 9 8 8 8 7 7
14 8 5 4 1 6 8 4 10 11 11 7 6 7 6 5 12 29 24 29 26 29 20 23 25 25 25 23 22 18 16 15 13 11 10 10 9 9 11 12 9 10 11 11 10 9 9 7 6
9 4 5 5 7 8 8 7 12 11 6 4 7 9 8 4 21 18 32 28 27 22 22 27 25 26 25 23 20 18 16 14 12 10 10 10 10 10 10 9 9 10 12 14 15 14 12 10 7
5 4 4 3 10 7 6 9 9 6 7 7 5 7 10 11 14 31 31 27 27 24 23 25 27 27 25 21 19 17 15 14 11 10 11 10 10 9 10 9 9 12 14 16 16 14 13 12 10
7 5 6 7 9 8 8 9 6 4 6 7 10 15 6 15 28 31 30 27 26 25 24 25 28 25 22 20 18 16 15 13 11 11 11 11 10 9 8 9 10 11 13 14 15 13 12 12 11
10 6 5 3 6 6 6 6 2 5 7 6 16 11 15 22 28 30 29 26 25 25 24 24 23 24 22 19 18 16 15 13 11 12 11 10 9 8 8 9 10 11 12 11 12 12 11 10 10
8 4 1 1 4 11 7 5 5 3 7 16 15 8 16 26 29 30 29 26 25 26 24 23 21 20 17 18 18 16 14 12 10 10 9 9 8 8 7 8 8 10 9 9 10 10 10 9 9
5 6 5 8 0 7 11 7 6 6 14 8 4 13 24 31 30 30 28 26 25 26 25 24 22 20 18 16 18 16 14 12 10 9 8 6 5 4 5 5 7 7 7 7 9 9 9 9 11
9 8 5 5 5 6 10 6 10 7 13 13 10 16 30 32 31 32 30 28 27 28 27 25 23 20 18 15 15 13 10 8 7 6 6 6 5 5 6 4 6 4 4 4 6 7 11 11 7
11 10 7 6 6 5 9 8 10 8 11 15 16 26 31 32 30 31 29 27 28 27 27 25 24 21 19 16 14 12 10 9 8 9 7 5 4 2 3 2 2 1 2 2 4 4 6 5 7
9 13 8 2 3 2 3 9 10 11 7 14 17 26 32 32 32 32 31 29 28 28 27 25 23 22 20 16 14 13 12 10 8 7 8 5 3 0 4 3 3 3 2 2 1 5 3 3 4
17 9 6 11 9 8 5 7 4 11 10 18 21 27 31 29 29 28 27 27 27 28 27 25 23 22 21 18 14 13 13 11 9 8 8 6 4 3 2 2 2 3 2 1 1 2 2 1 1
8 17 11 11 12 11 11 9 11 11 13 19 25 28 31 31 30 28 28 29 29 27 26 24 23 22 22 19 16 14 13 12 11 9 8 8 6 5 2 1 1 0 2 2 2 1 3 3 3
13 11 12 15 13 9 10 11 14 9 17 21 25 27 30 31 29 30 29 29 29 28 26 25 24 23 24 22 20 16 13 12 12 11 12 10 9 6 4 3 2 1 3 3 3 2 4 3 4
15 17 14 17 18 14 13 10 18 17 22 23 25 28 31 32 32 29 29 28 28 26 26 25 23 23 23 21 20 17 15 14 13 12 11 13 9 6 5 3 1 2 3 2 2 1 1 2 1
13 14 19 13 13 9 15 13 8 18 23 23 26 29 30 30 30 30 30 29 27 27 26 26 25 24 23 22 19 19 17 16 14 14 13 13 11 9 6 5 3 2 1 3 1 3 2 1 1
18 18 17 17 13 14 14 16 4 15 21 22 25 28 29 30 34 33 31 29 28 26 26 25 25 24 24 21 21 18 18 17 16 15 15 16 14 12 9 7 8 2 2 1 2 1 0 1 1
18 19 19 17 15 12 14 13 13 15 20 22 25 28 30 31 30 30 31 30 29 28 28 28 27 28 27 25 23 22 21 19 17 17 19 19 16 13 12 9 10 4 4 2 0 2 2 1 3
21 19 20 15 10 8 13 12 11 10 18 22 25 29 31 28 28 30 31 32 32 30 29 29 29 30 31 27 25 22 21 19 18 17 18 21 18 16 14 11 11 8 4 3 1 1 0 1 4
23 24 21 17 12 15 15 18 16 10 15 21 24 25 28 31 32 32 33 34 33 33 32 32 32 31 31 26 23 22 20 20 19 20 19 19 18 16 14 11 10 9 4 5 3 1 3 1 4
24 24 20 19 16 15 15 15 18 20 17 19 24 28 28 31 31 32 33 35 36 36 33 33 34 33 30 32 24 27 25 23 21 21 19 17 20 18 16 14 11 10 7 8 4 3 4 4 5
21 18 17 20 17 18 22 14 16 13 18 20 22 27 29 32 35 36 37 38 37 33 33 32 34 37 32 34 30 27 26 21 19 19 21 23 18 21 17 16 16 14 10 10 9 6 3 6 7
15 16 13 16 17 20 24 20 19 19 19 19 20 24 29 32 35 37 37 34 34 33 32 31 34 40 39 38 37 34 28 25 22 21 20 20 20 19 23 19 18 17 15 12 9 8 7 7 7
22 17 9 11 15 19 21 19 19 11 21 20 18 24 26 31 34 37 37 36 35 36 35 34 35 40 42 41 40 39 36 32 28 24 21 18 18 20 21 25 23 18 18 15 13 13 11 10 10
27 23 10 16 14 16 16 16 22 24 26 13 26 24 25 27 33 35 38 39 39 40 42 40 39 43 43 43 43 41 39 35 31 28 24 21 20 19 20 23 25 23 20 18 16 15 13 13 13
24 25 27 4 3 8 16 19 16 10 18 26 27 23 22 26 32 36 38 40 39 40 44 46 48 47 46 45 45 44 42 41 34 32 31 27 23 20 20 21 24 24 23 21 19 16 17 17 15
21 25 21 14 15 18 11 19 12 21 21 19 22 26 24 27 30 31 34 38 40 40 41 44 49 49 49 48 48 47 46 44 43 42 39 34 29 28 22 23 23 25 25 24 23 20 21 21 19
22 16 22 18 17 11 9 11 15 16 16 22 21 26 27 26 29 31 32 34 37 36 37 40 42 48 48 49 49 49 48 47 45 46 45 42 39 36 31 30 26 27 27 28 27 24 22 24 23
28 24 27 14 23 18 14 6 4 7 14 17 20 24 23 24 24 24 26 27 30 35 38 41 42 42 48 48 47 49 49 47 45 47 46 44 42 41 38 35 32 31 29 30 32 30 26 28 27
Wind_Direction
159 159 164 172 257 226 65 83 81 101 111 96 136 135 88 51 22 94 142 141 143 145 150 157 153 152 150 148 145 142 141 140 134 126 116 115 106 97 98 99 93 88 88 93 99 105 100 96 82
155 166 170 250 262 175 83 105 111 71 91 112 102 120 89 78 83 135 143 147 147 143 150 154 152 153 149 148 145 145 146 140 134 126 121 116 103 101 101 96 83 83 83 86 91 97 109 95 77
161 165 226 250 246 42 89 102 101 109 129 133 109 64 86 92 125 142 148 147 150 148 145 151 151 154 151 150 149 149 146 139 135 126 122 119 107 101 97 91 88 80 79 83 90 91 94 98 80
161 203 243 250 59 73 44 112 124 124 126 148 119 86 81 89 139 146 148 146 146 144 145 149 150 155 154 153 153 151 144 141 134 124 123 119 113 106 99 97 89 88 86 81 84 84 82 78 80
187 246 249 241 80 68 78 115 146 152 130 152 169 102 101 125 141 145 149 148 149 147 150 150 155 155 156 155 155 150 147 141 134 125 124 120 112 106 104 99 90 93 91 85 83 82 79 81 83
223 252 249 77 75 85 93 127 149 98 125 121 120 124 107 137 142 148 151 151 151 149 151 157 158 158 158 157 156 152 148 143 134 128 125 118 108 102 100 100 96 100 94 88 81 71 72 74 72
269 277 12 29 81 114 103 128 137 112 131 138 138 117 134 146 149 150 153 154 153 151 157 155 159 164 162 160 158 153 149 144 132 129 123 116 108 100 97 99 106 107 98 88 77 72 69 70 66
273 275 208 150 77 85 117 146 105 123 82 130 140 148 160 158 153 155 156 157 156 156 163 160 164 164 161 163 160 155 152 148 143 134 129 118 107 95 93 96 115 115 104 90 78 81 71 61 43
242 248 159 110 85 110 151 142 115 111 138 146 148 151 158 156 156 159 161 163 162 162 167 167 169 170 168 166 166 160 160 156 152 139 130 111 98 90 75 149 135 122 107 94 77 73 69 61 44
228 277 111 70 57 20 157 163 139 152 151 143 110 130 150 158 163 166 169 171 170 168 171 174 175 177 174 173 180 172 170 168 161 159 167 118 144 133 128 120 134 126 120 91 75 68 62 57 54
210 257 131 122 25 37 148 173 157 144 173 168 148 149 157 164 169 173 176 178 176 174 175 180 179 181 182 181 183 186 185 189 192 174 158 182 148 135 121 147 100 158 110 64 49 22 47 76 59
241 235 249 168 327 48 160 160 177 178 124 165 164 164 165 171 174 176 179 180 181 181 180 183 186 186 188 192 190 193 193 195 193 200 188 185 137 109 141 140 156 130 160 161 63 39 71 75 46
224 240 232 241 255 263 262 202 178 188 135 156 164 170 172 177 178 180 182 182 184 186 184 187 190 192 192 193 198 197 199 204 204 207 205 190 177 182 136 156 126 136 138 46 31 10 13 63 355
196 231 244 249 246 245 235 211 200 191 167 160 166 176 180 182 183 182 185 188 189 190 189 189 192 196 195 197 196 202 204 207 206 209 211 202 189 185 171 186 167 177 234 268 294 24 35 16 26
236 241 236 233 231 229 226 234 211 188 176 172 174 178 184 188 190 192 192 193 192 193 192 193 195 198 201 202 205 205 210 209 209 208 211 196 188 207 189 215 142 256 278 297 298 9 5 44 63
223 230 239 228 212 218 210 231 187 186 183 182 179 178 184 192 194 196 196 196 197 196 196 195 197 202 204 205 207 205 211 210 210 210 209 199 203 210 232 264 274 264 314 344 302 357 30 19 114
214 230 213 183 191 193 209 240 96 179 191 189 185 182 186 191 197 199 198 198 200 200 199 199 198 202 203 206 206 208 212 209 209 210 210 212 215 224 244 264 298 298 12 316 116 34 33 44 83
212 221 241 213 188 218 218 238 160 178 201 197 191 190 191 194 200 199 199 201 201 203 202 201 200 200 203 204 206 209 212 211 211 213 214 218 225 239 254 259 255 260 285 302 114 131 5 156 226
239 224 227 219 226 242 247 251 244 181 207 203 193 198 199 201 199 200 202 203 203 203 205 204 202 205 205 204 205 206 208 210 213 216 216 220 226 237 248 247 255 236 254 245 155 23 357 347 314
231 232 231 240 207 248 248 239 243 199 206 208 197 202 205 202 197 200 204 203 204 204 205 206 206 207 210 209 206 207 207 213 216 218 219 219 232 240 247 248 236 236 247 290 280 138 152 331 155
225 229 232 237 218 239 259 259 247 217 207 211 209 211 208 204 199 199 200 204 204 206 206 207 209 208 211 204 207 208 208 209 217 216 220 226 232 229 231 237 238 238 222 269 279 267 172 227 180
226 217 239 245 240 247 214 257 229 218 210 207 212 209 211 204 205 202 202 202 206 208 207 209 212 211 212 211 206 210 209 213 215 216 219 222 224 223 230 240 242 234 229 237 269 243 206 176 191
233 230 218 237 243 246 247 249 252 211 219 214 215 212 212 208 205 203 203 206 207 206 207 208 212 215 210 212 205 214 212 218 216 216 219 225 228 225 229 237 239 242 242 250 234 272 240 220 193
216 221 226 228 233 241 237 240 239 234 216 223 214 214 211 210 206 207 207 206 206 206 207 208 212 215 215 216 215 217 216 208 212 216 218 221 222 228 226 228 233 241 236 241 251 258 253 214 215
196 194 189 209 217 237 226 236 234 241 225 214 221 213 211 206 207 206 205 204 205 205 206 207 212 215 216 217 220 220 223 223 219 217 218 217 220 221 227 228 228 231 231 237 248 256 251 239 225
196 202 211 210 216 227 214 236 239 228 239 238 227 234 203 206 207 206 205 205 205 204 207 206 211 217 217 219 222 224 226 226 226 230 220 222 219 223 221 230 224 225 229 237 247 250 243 232 230
194 213 215 244 201 272 223 220 256 243 224 219 226 219 216 204 204 206 206 207 207 207 208 209 215 219 220 223 225 227 229 228 225 224 233 225 223 222 221 222 221 221 228 233 238 236 242 233 232
204 207 212 229 241 238 227 231 229 209 211 217 215 216 209 202 202 205 207 209 211 211 209 210 219 222 221 222 226 228 231 231 232 236 233 232 225 226 220 225 222 221 225 228 234 235 238 239 237
200 201 213 223 233 221 236 237 215 230 214 214 211 210 207 202 202 204 209 211 214 213 212 212 214 220 224 224 226 228 228 231 233 235 237 237 237 236 229 234 227 222 223 227 233 232 229 239 239
203 205 200 213 212 241 281 272 109 235 215 215 215 211 211 208 212 213 214 211 211 212 213 214 213 213 220 226 226 228 229 229 231 234 236 237 236 236 235 233 233 228 223 227 233 236 231 239 241
Height
1515 1518 1520 1521 1523 1507 1501 1499 1486 1492 1493 1499 1502 1502 1503 1514 1518 1528 1534 1538 1541 1543 1548 1552 1554 1557 1560 1562 1564 1566 1568 1570 1571 1572 1572 1573 1573 1573 1574 1574 1574 1574 1574 1575 1575 1575 1576 1576 1577
1518 1518 1521 1518 1515 1505 1497 1487 1491 1491 1498 1502 1506 1508 1509 1521 1524 1528 1535 1541 1544 1547 1550 1554 1557 1560 1562 1564 1566 1569 1571 1572 1573 1574 1575 1575 1575 1575 1576 1576 1576 1577 1577 1576 1577 1577 1577 1578 1579
1519 1520 1519 1509 1496 1499 1495 1488 1491 1499 1502 1503 1508 1510 1513 1524 1527 1530 1536 1541 1545 1548 1554 1555 1558 1561 1563 1566 1569 1571 1573 1574 1576 1576 1577 1577 1577 1578 1578 1579 1580 1579 1579 1579 1579 1579 1579 1580 1580
1518 1521 1518 1506 1488 1488 1485 1487 1494 1500 1504 1506 1507 1513 1521 1524 1528 1532 1537 1543 1547 1552 1556 1556 1560 1563 1566 1568 1571 1573 1575 1577 1578 1579 1579 1580 1580 1580 1580 1581 1582 1582 1581 1581 1581 1581 1581 1581 1581
1519 1515 1499 1489 1486 1485 1486 1490 1496 1496 1501 1505 1507 1517 1524 1528 1530 1534 1540 1545 1549 1553 1557 1558 1561 1565 1568 1571 1573 1575 1577 1579 1580 1580 1581 1582 1582 1582 1583 1583 1584 1584 1584 1584 1584 1584 1584 1583 1583
1513 1507 1488 1485 1487 1486 1489 1494 1495 1496 1503 1508 1510 1516 1526 1529 1531 1536 1541 1547 1551 1555 1560 1561 1563 1567 1570 1573 1575 1577 1579 1580 1581 1582 1583 1584 1584 1584 1585 1585 1586 1586 1586 1586 1586 1586 1586 1586 1585
1509 1495 1489 1485 1489 1487 1491 1495 1494 1496 1503 1506 1511 1515 1526 1530 1533 1538 1543 1547 1552 1557 1561 1564 1566 1569 1572 1575 1577 1579 1581 1582 1583 1584 1585 1585 1586 1586 1586 1587 1588 1588 1588 1588 1588 1588 1588 1588 1588
1507 1499 1490 1488 1485 1491 1492 1495 1498 1499 1504 1510 1513 1517 1524 1529 1534 1539 1544 1548 1552 1558 1562 1565 1569 1571 1574 1576 1578 1580 1582 1583 1584 1585 1586 1587 1588 1588 1588 1589 1589 1589 1589 1590 1590 1590 1589 1589 1589
1509 1495 1488 1485 1484 1488 1492 1494 1501 1504 1508 1510 1514 1515 1522 1528 1535 1541 1546 1549 1552 1557 1562 1566 1570 1573 1575 1578 1579 1580 1582 1584 1585 1586 1587 1588 1590 1591 1592 1590 1590 1590 1591 1591 1592 1591 1591 1591 1591
1503 1488 1481 1484 1485 1484 1489 1492 1499 1502 1507 1510 1515 1518 1523 1530 1535 1539 1544 1548 1552 1555 1561 1566 1571 1573 1576 1579 1579 1581 1584 1586 1588 1589 1589 1591 1591 1591 1592 1591 1591 1591 1592 1592 1593 1593 1592 1592 1593
1497 1487 1484 1487 1489 1488 1489 1492 1497 1499 1503 1507 1514 1519 1524 1529 1535 1540 1544 1548 1552 1556 1560 1565 1569 1573 1576 1579 1580 1583 1585 1587 1587 1587 1589 1591 1591 1591 1593 1594 1594 1593 1593 1594 1594 1593 1593 1594 1594
1494 1490 1488 1486 1489 1489 1489 1491 1494 1497 1499 1506 1513 1519 1523 1528 1532 1537 1543 1547 1552 1555 1560 1564 1568 1571 1575 1578 1580 1583 1585 1586 1588 1589 1588 1589 1592 1592 1593 1594 1594 1593 1595 1594 1595 1593 1594 1594 1595
1492 1487 1489 1489 1489 1489 1490 1491 1491 1497 1501 1505 1512 1518 1523 1529 1534 1538 1543 1548 1552 1555 1558 1562 1566 1568 1572 1575 1579 1583 1584 1586 1588 1588 1588 1590 1592 1592 1593 1593 1595 1594 1595 1595 1594 1595 1594 1593 1593
1483 1487 1487 1487 1486 1487 1487 1488 1492 1494 1500 1504 1509 1515 1520 1526 1531 1537 1541 1545 1549 1553 1557 1561 1564 1566 1569 1573 1576 1580 1582 1585 1586 1588 1589 1589 1591 1591 1594 1594 1595 1596 1595 1595 1593 1593 1593 1593 1593
1484 1487 1483 1482 1483 1483 1485 1485 1486 1490 1497 1502 1506 1512 1518 1523 1529 1533 1538 1542 1547 1551 1555 1559 1562 1565 1567 1570 1573 1576 1581 1583 1585 1587 1587 1588 1589 1591 1592 1593 1594 1595 1595 1592 1592 1593 1593 1593 1594
1482 1479 1480 1469 1474 1478 1482 1479 1475 1486 1493 1498 1503 1508 1513 1518 1524 1530 1535 1540 1545 1549 1552 1557 1561 1564 1566 1569 1571 1575 1579 1581 1583 1585 1586 1587 1588 1589 1591 1592 1593 1594 1592 1592 1593 1593 1593 1594 1594
1473 1474 1471 1467 1469 1470 1477 1473 1471 1481 1488 1493 1499 1503 1509 1515 1521 1526 1531 1536 1541 1546 1549 1553 1557 1561 1564 1566 1570 1572 1575 1577 1581 1583 1585 1585 1587 1588 1590 1592 1593 1592 1593 1593 1593 1593 1593 1594 1594
1472 1474 1462 1466 1463 1466 1469 1469 1467 1478 1483 1487 1495 1500 1504 1508 1513 1520 1526 1532 1538 1542 1546 1550 1554 1558 1560 1564 1567 1571 1574 1575 1578 1580 1582 1583 1585 1587 1588 1591 1590 1591 1593 1593 1593 1592 1592 1593 1593
1457 1462 1466 1459 1459 1465 1464 1464 1464 1469 1478 1480 1488 1495 1498 1501 1508 1516 1522 1528 1533 1537 1541 1544 1548 1551 1555 1559 1563 1567 1570 1573 1575 1577 1578 1581 1583 1585 1586 1589 1589 1590 1590 1590 1590 1591 1591 1592 1591
1465 1467 1464 1456 1457 1465 1459 1461 1458 1462 1471 1475 1481 1486 1491 1498 1504 1511 1517 1522 1526 1531 1535 1539 1542 1546 1550 1555 1559 1564 1568 1571 1573 1575 1576 1578 1580 1582 1584 1586 1588 1589 1591 1588 1589 1590 1592 1592 1591
1464 1465 1462 1462 1456 1459 1462 1463 1460 1458 1465 1470 1474 1480 1485 1490 1496 1503 1509 1515 1521 1525 1529 1533 1537 1542 1546 1552 1556 1560 1564 1567 1569 1571 1573 1575 1577 1579 1581 1583 1585 1586 1588 1589 1588 1588 1590 1591 1591
1460 1457 1460 1461 1464 1473 1452 1470 1447 1447 1456 1461 1467 1471 1476 1483 1491 1497 1503 1508 1512 1517 1524 1528 1533 1537 1542 1546 1552 1554 1558 1561 1565 1568 1571 1574 1574 1577 1579 1581 1581 1583 1586 1587 1586 1587 1589 1589 1590
1452 1449 1457 1462 1463 1465 1456 1462 1447 1438 1448 1449 1454 1461 1468 1474 1481 1487 1493 1499 1505 1513 1518 1523 1527 1532 1537 1541 1547 1550 1554 1559 1562 1565 1568 1569 1572 1573 1576 1578 1579 1581 1582 1583 1584 1584 1585 1587 1589
1449 1451 1456 1460 1461 1466 1451 1451 1444 1435 1439 1440 1445 1452 1459 1466 1472 1479 1485 1494 1501 1508 1514 1518 1521 1525 1531 1535 1540 1544 1548 1553 1557 1560 1563 1566 1568 1570 1571 1573 1575 1578 1580 1581 1581 1582 1583 1584 1585
1446 1452 1464 1471 1462 1454 1435 1444 1437 1421 1422 1432 1436 1441 1450 1458 1465 1471 1479 1486 1493 1499 1505 1510 1514 1518 1524 1529 1533 1537 1542 1547 1551 1554 1557 1562 1564 1567 1568 1567 1570 1574 1576 1578 1579 1580 1581 1581 1583
1438 1439 1440 1462 1449 1444 1430 1434 1420 1416 1423 1426 1432 1433 1441 1451 1457 1463 1470 1476 1482 1488 1494 1501 1506 1511 1517 1522 1526 1532 1537 1541 1545 1549 1553 1555 1559 1561 1564 1563 1566 1569 1572 1574 1576 1577 1578 1578 1580
1428 1430 1416 1425 1428 1434 1412 1414 1412 1410 1412 1419 1424 1428 1432 1440 1448 1454 1460 1466 1473 1479 1484 1490 1496 1502 1509 1514 1519 1523 1529 1534 1538 1542 1545 1550 1553 1557 1558 1559 1561 1564 1567 1569 1572 1574 1574 1575 1577
1408 1415 1435 1426 1451 1452 1418 1417 1412 1404 1410 1411 1416 1419 1424 1433 1440 1447 1453 1458 1463 1468 1475 1481 1485 1491 1497 1505 1510 1515 1519 1524 1529 1533 1537 1541 1545 1549 1553 1554 1557 1559 1562 1565 1567 1569 1570 1571 1573
1409 1413 1414 1415 1415 1425 1428 1407 1384 1396 1399 1405 1407 1413 1418 1425 1432 1437 1443 1449 1455 1464 1470 1472 1478 1482 1488 1494 1499 1504 1509 1514 1520 1523 1528 1532 1538 1542 1545 1547 1551 1554 1556 1559 1562 1565 1566 1567 1569
1393 1402 1405 1413 1426 1417 1411 1402 1388 1391 1393 1401 1404 1410 1415 1421 1426 1432 1437 1443 1449 1453 1459 1462 1467 1472 1474 1481 1487 1492 1499 1505 1509 1513 1519 1524 1529 1534 1537 1541 1544 1547 1550 1552 1555 1558 1560 1561 1563